Helicity
115 95 106 90 81 85 121 83 332 85 440 375 401 457 526 442 264 289 303 263 234 162 150 152 127 114 63 28 72 68 88 111 144 52 137 33 48 61 101 215 174 121 127 64
109 89 96 92 82 98 150 40 215 128 313 474 513 447 414 357 451 378 340 320 343 219 252 237 148 66 69 40 55 81 59 126 187 169 102 99 98 61 64 65 162 141 187 208
88 93 94 90 90 93 122 48 229 184 291 295 541 569 301 434 209 301 377 283 358 329 206 84 79 118 123 44 22 63 40 110 107 127 97 113 122 125 103 96 169 153 168 110
95 76 83 88 89 86 149 118 129 280 92 329 325 490 310 440 622 405 414 442 341 429 336 233 240 170 275 181 139 134 134 153 105 88 177 184 96 58 51 93 125 164 123 93
96 72 61 82 89 92 164 100 125 129 329 36 219 487 241 351 504 593 317 308 176 142 204 186 190 303 261 256 246 154 157 167 186 138 138 159 157 115 124 99 66 89 68 83
93 51 49 68 87 133 142 59 182 290 -68 305 278 259 492 315 310 326 326 175 119 155 115 189 263 212 194 219 214 144 231 252 281 200 204 231 242 137 158 114 90 90 123 136
62 25 16 57 90 117 166 132 -59 232 62 114 98 107 322 293 174 307 156 145 138 110 347 301 353 414 352 239 252 221 259 321 343 264 292 332 188 65 57 54 87 132 116 113
41 24 -4 65 95 76 153 71 134 82 218 221 151 221 226 384 325 491 336 262 244 334 426 441 376 364 355 349 293 269 277 309 388 345 337 258 143 111 174 119 70 99 72 119
20 26 -1 73 85 80 134 133 101 110 80 188 131 233 148 232 329 275 402 436 285 400 495 518 400 380 297 269 300 381 280 314 299 369 332 329 141 143 204 203 158 143 143 176
-2 3 21 61 81 65 113 75 40 39 59 64 216 210 333 497 527 407 365 415 379 411 448 372 335 350 420 380 319 375 411 383 343 348 341 270 225 214 219 236 267 255 107 78
-14 -11 32 47 66 60 92 132 104 -71 136 131 358 303 213 409 380 490 481 540 651 758 477 408 464 363 234 239 280 276 315 331 340 299 258 263 349 319 292 335 281 201 227 156
39 -26 24 39 37 80 73 108 127 63 19 119 349 370 433 297 238 356 227 238 195 304 375 408 440 458 359 254 270 265 315 367 257 245 274 412 198 253 255 242 252 282 220 137
374 165 -65 17 19 96 183 183 270 270 136 144 249 268 299 301 377 196 376 412 327 409 495 472 443 378 256 266 239 278 231 333 334 313 327 360 301 239 296 299 304 227 214 190
-50 133 54 134 139 153 178 212 243 252 149 146 196 257 289 306 270 194 206 196 291 247 265 363 343 291 302 374 394 203 252 292 313 394 393 277 208 269 240 232 215 193 192 187
-44 -26 26 157 221 325 495 475 411 421 223 204 291 308 436 290 328 292 233 237 280 371 324 275 314 294 295 358 388 338 328 364 322 238 180 249 243 186 173 190 216 233 215 225
38 -81 -90 -72 -13 243 479 527 454 462 534 460 408 365 379 378 333 376 391 401 437 380 449 451 387 416 419 353 325 293 213 222 251 250 238 253 213 226 231 223 191 173 171 167
62 49 45 -41 -25 79 187 247 205 441 498 565 596 545 455 448 393 488 394 362 345 370 405 430 297 306 250 296 318 181 155 178 195 191 169 150 124 149 127 120 128 154 152 151
76 59 71 48 95 56 111 137 84 74 424 617 559 608 464 346 450 418 282 325 292 269 235 204 232 186 191 202 159 134 144 139 125 114 103 134 133 114 93 100 102 92 89 97
82 72 43 20 134 117 78 147 82 43 60 148 292 513 466 185 245 218 183 159 215 142 177 166 155 141 139 113 101 121 138 132 114 103 89 78 63 55 57 67 70 69 76 85
35 52 65 62 72 148 133 58 74 82 95 86 187 207 179 144 156 170 149 135 135 121 123 108 103 117 113 106 106 82 85 90 86 88 80 77 63 61 58 55 66 65 70 69
17 31 47 74 111 79 66 86 110 125 130 132 138 136 143 144 151 156 142 134 139 113 129 131 115 126 102 97 105 105 97 90 73 63 57 54 44 35 36 38 43 42 39 37
39 26 23 30 37 40 52 93 91 104 118 123 125 131 164 163 139 143 140 149 121 120 92 128 133 94 77 84 88 84 77 73 55 48 50 41 52 44 13 20 29 27 36 6
24 18 20 30 32 62 74 85 82 72 72 91 99 144 163 136 124 129 128 154 171 76 119 137 108 79 76 70 61 63 70 63 55 53 55 54 58 55 60 34 34 29 19 22
27 37 45 40 45 47 59 56 51 47 53 71 102 143 133 141 148 114 149 121 96 130 127 111 66 59 57 62 60 41 39 42 45 60 69 64 68 64 62 59 52 50 70 78
31 24 18 9 18 33 35 27 27 50 32 45 48 62 69 93 95 94 102 115 130 108 98 71 60 64 54 49 42 44 41 35 37 39 45 50 52 51 61 74 79 99 103 73
37 16 -5 -26 -5 19 34 31 17 2 8 43 43 60 64 71 63 70 82 86 76 66 56 71 79 67 58 51 48 38 32 29 35 39 41 48 54 59 77 110 127 129 106 90
52 28 13 3 1 14 18 40 40 32 26 40 47 56 71 49 45 46 36 48 51 38 52 64 77 68 59 58 49 42 36 38 36 37 44 47 51 58 66 85 100 104 99 104
Wind_Speed
46 48 75 86 87 89 92 102 115 76 84 115 117 115 83 81 79 72 73 66 56 51 52 53 50 51 43 31 33 43 36 40 47 40 36 40 37 37 35 42 45 50 58 62
44 46 60 81 88 90 93 109 109 82 90 133 119 98 101 88 81 79 72 71 66 54 50 53 59 47 34 25 32 29 32 39 42 45 43 39 43 41 41 44 46 52 53 57
52 47 51 74 87 94 95 100 108 100 96 117 110 109 107 103 87 85 71 72 64 59 57 53 54 47 37 32 34 30 29 43 48 55 53 42 45 45 46 47 58 57 64 60
51 50 48 71 85 93 98 98 96 87 121 112 116 102 101 108 101 84 72 68 73 72 71 72 60 47 42 45 40 37 37 59 56 62 54 48 47 45 43 52 58 61 64 60
56 53 49 62 84 91 104 88 94 100 108 107 113 108 122 103 94 91 96 79 66 68 77 80 76 61 52 57 54 49 53 66 60 68 62 62 67 61 56 56 59 62 66 70
48 52 49 60 83 88 90 94 79 74 106 104 113 124 109 116 97 92 96 92 78 88 82 59 60 60 60 53 56 61 61 65 68 85 65 68 86 78 64 66 63 60 73 71
46 56 49 67 86 95 66 85 79 77 103 109 114 101 102 109 101 97 91 91 88 80 40 37 41 47 53 56 56 56 68 67 66 80 64 91 77 55 56 64 68 65 74 79
43 52 50 79 88 100 90 72 76 74 73 99 104 107 101 82 81 86 93 86 75 52 54 74 79 78 74 73 63 60 54 60 69 75 74 82 77 63 60 66 82 70 76 79
44 49 48 77 84 91 88 93 65 79 62 73 82 92 103 95 99 66 63 48 46 47 59 68 89 94 86 81 67 58 53 59 71 71 93 104 81 69 58 58 99 77 79 76
61 70 94 79 74 77 85 87 83 57 63 60 67 81 95 77 74 96 79 68 63 51 72 82 83 82 63 75 76 73 72 72 83 82 90 85 65 54 42 82 88 59 56 59
74 76 67 71 70 68 86 84 77 80 50 47 47 57 78 57 77 80 66 65 69 75 79 83 74 73 67 71 68 71 74 74 83 85 94 102 56 50 72 69 55 55 52 44
25 77 76 74 72 57 80 77 64 56 59 42 38 31 41 56 55 60 60 68 66 62 78 77 69 76 68 76 90 66 84 74 76 72 79 60 43 57 49 49 50 47 45 43
9 11 62 76 50 62 67 71 52 56 58 47 41 47 41 37 45 47 56 58 57 61 54 58 63 73 66 80 84 69 64 57 68 63 59 50 40 39 39 43 45 41 40 39
47 17 26 24 42 61 62 58 49 44 39 46 40 36 46 40 36 41 44 42 43 42 47 55 59 63 57 65 62 60 55 45 54 59 51 42 38 42 39 40 39 40 41 43
31 20 22 23 34 35 31 31 30 41 46 40 35 30 30 32 33 31 31 36 44 50 53 57 60 52 51 53 55 62 51 52 52 58 39 42 36 35 35 39 44 47 47 44
26 14 22 33 30 23 36 33 29 31 31 30 33 27 21 17 15 18 24 32 40 45 45 46 45 40 43 45 52 39 33 31 35 36 33 35 36 38 40 43 42 39 39 41
17 18 14 10 22 19 25 31 24 27 26 28 32 30 29 24 21 21 20 22 27 33 35 42 39 35 37 40 45 29 29 31 35 36 39 46 47 50 41 39 38 43 49 50
20 10 4 5 12 9 1 9 11 14 14 22 32 32 28 24 25 25 26 27 28 31 30 30 36 33 36 44 32 27 30 36 40 41 39 43 40 41 44 45 45 46 47 47
24 18 15 13 10 11 14 21 16 13 19 25 27 34 33 27 24 22 24 30 33 33 33 35 35 37 44 37 29 28 30 34 34 37 39 42 45 47 42 41 41 43 43 42
26 23 20 19 21 30 28 22 22 22 21 21 25 25 27 22 20 28 29 27 32 38 34 26 37 38 31 27 30 30 34 35 36 38 40 41 43 40 36 33 37 38 37 35
23 21 18 23 29 25 24 30 29 30 26 23 23 21 21 25 29 27 30 29 32 40 36 38 41 44 33 27 28 30 31 32 34 36 39 41 41 33 30 27 28 30 28 28
19 18 21 25 26 25 26 29 29 31 35 29 27 24 24 25 28 31 33 35 36 39 31 38 45 37 21 18 22 27 30 32 33 35 36 38 34 26 22 24 25 27 26 41
23 23 24 28 28 27 31 36 31 29 23 19 15 19 20 20 23 25 28 37 39 21 36 42 35 19 19 23 26 27 29 30 31 33 32 29 24 25 27 26 33 40 37 32
22 23 25 27 27 26 26 24 23 22 14 9 13 17 22 23 23 24 29 26 23 35 40 38 21 15 19 23 22 22 25 27 29 30 29 28 28 29 30 30 32 29 24 21
23 24 24 21 18 19 20 19 15 14 11 15 14 19 21 22 24 26 23 26 36 34 33 25 18 15 17 18 17 19 22 25 27 29 29 30 29 28 29 27 24 20 17 18
24 24 18 18 18 17 16 13 10 16 20 23 24 23 22 25 24 25 28 28 32 28 28 23 15 14 16 15 15 17 21 26 29 30 29 27 26 26 25 23 22 20 19 18
25 23 21 22 21 20 20 21 19 23 25 25 26 27 28 25 31 31 31 33 31 25 23 20 18 16 14 13 15 20 23 27 29 29 28 27 26 24 24 23 24 22 22 20
Wind_Direction
206 210 230 228 228 225 222 224 230 228 207 220 228 229 233 234 229 232 239 239 244 239 234 234 234 244 252 237 217 220 240 269 268 269 286 273 253 261 252 274 284 276 287 289
201 209 226 228 225 222 219 223 232 231 215 222 227 230 232 233 227 226 235 239 238 237 234 238 238 242 246 230 214 222 224 264 267 277 281 277 268 258 260 264 286 276 280 292
187 200 217 228 225 222 219 221 228 225 227 225 224 225 230 228 225 229 236 238 237 230 232 236 240 242 248 235 231 243 225 268 265 271 284 279 267 267 259 263 269 274 269 284
192 193 210 227 224 221 218 222 229 229 223 225 223 220 225 225 227 230 229 240 233 230 235 233 243 239 246 247 244 247 249 270 268 273 280 282 281 277 267 259 262 269 276 277
186 190 200 223 223 220 218 221 229 226 230 224 221 221 226 223 224 221 226 231 225 225 237 239 244 245 248 248 255 251 261 271 274 273 272 277 279 280 277 268 269 270 276 279
189 188 198 220 220 216 223 224 228 235 231 226 228 225 224 226 224 230 228 231 234 239 244 256 261 254 255 260 254 256 262 267 273 272 275 278 275 270 273 275 271 273 275 276
185 181 190 223 219 216 224 220 223 235 233 229 225 227 224 227 224 228 231 231 237 241 244 253 267 268 266 263 264 264 264 264 271 274 274 271 280 286 276 270 273 275 280 282
178 178 182 222 218 214 220 223 223 229 237 229 229 229 225 225 229 238 235 235 239 238 243 253 259 262 263 262 266 265 261 260 270 271 270 282 285 282 282 280 280 282 281 283
172 177 182 220 218 216 220 219 226 229 242 242 227 222 220 223 223 229 231 236 225 227 245 248 252 253 258 262 264 263 262 268 264 274 275 275 285 287 289 292 284 290 284 284
169 172 205 217 216 216 220 220 222 225 246 243 233 222 221 226 225 232 234 236 238 243 243 248 252 256 259 256 259 263 262 266 262 268 275 280 286 290 292 283 292 300 292 290
180 173 214 213 213 214 212 213 219 220 237 239 232 226 218 215 222 229 233 233 242 241 245 245 251 258 258 263 266 268 263 266 269 271 274 276 282 282 279 292 298 298 301 297
188 168 201 214 214 214 212 214 220 222 230 241 240 232 238 234 230 232 232 243 235 244 251 258 260 262 263 263 267 270 268 267 272 272 278 288 282 286 285 294 294 301 302 301
357 119 162 210 211 203 212 213 217 221 227 237 243 237 242 245 242 235 237 244 245 246 257 257 262 262 261 264 265 270 270 276 274 277 278 283 277 292 293 293 296 301 305 308
45 71 96 175 198 202 206 209 221 228 233 239 251 261 246 261 255 246 247 243 247 245 254 259 261 264 266 266 271 265 276 272 273 277 281 284 279 288 291 295 299 303 308 311
47 70 95 123 157 171 184 207 237 229 228 231 231 250 274 258 252 247 245 239 240 248 254 260 262 268 270 273 271 267 267 272 270 279 278 286 288 287 293 296 298 302 305 309
38 67 85 83 107 177 215 225 245 234 225 238 242 262 281 277 253 245 248 242 246 250 256 262 267 268 272 266 268 273 271 278 284 283 292 294 295 298 301 301 304 307 309 309
21 40 42 227 226 236 238 227 234 242 240 249 245 247 256 251 244 246 241 248 249 251 256 263 260 261 269 273 272 267 270 282 290 293 293 292 292 295 301 302 302 304 302 303
338 320 343 37 58 64 316 301 294 246 263 255 245 234 237 256 234 237 255 247 254 267 266 263 258 264 273 273 274 274 286 291 293 295 299 299 304 303 302 302 303 303 303 304
309 289 307 250 275 270 266 265 258 297 277 254 240 227 224 246 243 253 262 263 260 269 268 269 268 267 270 276 278 284 294 296 299 302 301 300 300 302 306 305 306 307 308 308
301 304 290 288 301 267 255 258 272 285 286 271 236 241 233 243 250 257 262 275 267 265 273 284 276 276 286 289 292 293 298 300 301 300 299 304 307 311 312 312 311 311 313 317
309 311 306 289 280 288 296 260 261 265 264 265 254 250 236 258 258 260 276 273 276 270 276 277 278 278 281 283 290 296 301 304 308 311 312 310 310 313 317 322 321 324 326 330
309 307 296 296 302 300 292 277 280 273 255 261 250 250 258 259 268 269 272 273 276 275 277 276 277 281 285 295 303 306 303 304 309 311 314 314 315 319 324 325 328 327 317 260
269 288 302 301 300 292 277 266 276 277 279 272 262 265 282 286 293 289 287 275 275 290 279 279 290 290 287 294 298 303 303 305 309 311 315 320 325 322 316 317 295 267 273 296
288 295 309 304 298 298 295 288 289 287 273 256 269 281 284 283 289 293 287 294 293 281 281 285 293 280 289 299 300 300 303 306 309 316 318 310 297 298 308 309 294 294 314 338
297 290 303 304 287 290 289 282 296 270 262 267 286 295 288 287 290 290 296 287 281 283 285 295 287 278 288 296 294 302 309 314 318 312 303 289 293 302 305 311 312 316 335 351
299 310 321 305 305 300 288 303 312 261 254 268 276 281 287 287 290 287 287 284 287 293 285 286 284 282 292 299 303 308 311 302 297 293 297 300 305 310 314 326 328 329 339 352
303 304 303 297 301 300 291 281 279 267 264 274 275 277 277 282 280 282 280 283 285 289 289 286 276 278 286 294 298 296 299 296 294 292 299 303 305 313 316 323 324 335 340 349